Location: Härggis
(46.9540°N, 8.4897°E)
Time: 20:27:48
(UTC+00:00)

CZ-4 R/B - Pass Details

Date: 27 May 2022
Orbit: 680 x 752 km, 98.5° (Epoch: 02 July)

Event Time Altitude Azimuth Distance (km) Brightness Sun altitude
Rises 01:04:10 0° 15° (NNE) 3,062 8.7 -18.1°
Reaches altitude 10° 01:06:26 10° 17° (NNE) 2,137 7.6 -17.9°
Maximum altitude 01:11:06 77° 104° (ESE) 703 3.8 -17.6°
Enters shadow 01:13:20 31° 186° (S) 1,195 4.5 -17.4°
